Regional Weather Roundup
Issued by NWS

Home | Current Version | Previous Version | Text Only | Print | Product List | Glossary Off
Versions: 1 2 3 4 5 6 7 8 9 10 11 12 13 14 15 16 17 18 19 20 21 22 23 24 25 26 27 28 29 30 31 32 33 34 35 36 37 38 39 40 41 42 43 44 45 46 47 48 49 50

000
ASUS45 KABQ 060410
RWRNM
WEATHER ROUNDUP FOR NEW MEXICO
NATIONAL WEATHER SERVICE ALBUQUERQUE NM
900 PM MST THU MAR 05 2015

NOTE: "FAIR" MEANS FEW OR NO CLOUDS BELOW 12,000 FEET AGL WITH NO
       SIGNIFICANT WEATHER OR OBSTRUCTIONS TO VISION.

      THIS PRODUCT IS RELEASED AS TWO VERSIONS.  ONE VERSION NEAR
      THE TOP OF THE HOUR CONTAINING PRELIMINARY DATA FROM ALBUQUERQUE
      AND OTHER STATIONS.  A FINAL VERSION WITH ADDITIONAL DATA IS
      ISSUED ABOUT 10 MINUTES AFTER THE HOUR.

NMZ501-503-504-510>518-060500-
NORTHWEST PLATEAU/NORTHCENTRAL MOUNTAINS

CITY           SKY/WX    TMP DP  RH WIND       PRES   REMARKS
FARMINGTON     CLEAR     34  19  54 SW6       30.37R WCI  29
LOS ALAMOS     CLEAR     35  11  38 CALM      30.36R
SANTA FE       CLEAR     30  14  51 N10       30.34R WCI  21
TAOS           PTCLDY    25  14  63 N5        30.37R WCI  19
ANGEL FIRE     FAIR      26   6  43 NW7       30.35S WCI  18

$$
NMZ402-403-502-505>509-060500-
WESTCENTRAL MOUNTAINS/SOUTHWEST MOUNTAINS

CITY           SKY/WX    TMP DP  RH WIND       PRES   REMARKS
GALLUP         CLEAR     28  20  71 SE3       30.39R
GRANTS         CLEAR     31  11  43 CALM      30.40R
SILVER CITY    CLEAR     36  18  48 E5        30.38S WCI  32

$$
NMZ407-409-411-412-060500-
SOUTHERN DESERTS

CITY           SKY/WX    TMP DP  RH WIND       PRES   REMARKS
LORDSBURG      FAIR      36  21  55 SE3       30.35R
DEMING         CLEAR     40  21  46 CALM      30.36R
LAS CRUCES     CLEAR     40  22  49 S7        30.38R WCI  35
HOLLOMAN AFB   CLEAR     37  23  57 S3        30.36R
ALAMOGORDO     CLEAR     36  25  64 E3        30.38R
T OR C         CLEAR     42  14  32 S7        30.35R

$$
NMZ519>523-060500-
CENTRAL VALLEYS/CENTRAL HIGHLANDS

CITY           SKY/WX    TMP DP  RH WIND       PRES   REMARKS
ALBUQUERQUE    CLEAR     44  11  26 NW8       30.37R
DOUBLE EAGLE   CLEAR     37   9  30 NW9       30.37R WCI  31
MORIARTY ARPT  FAIR      30   9  40 W6        30.35S WCI  24
CLINES CORNERS CLEAR     30  10  43 W15       30.30S WCI  19
BELEN          FAIR      35  14  41 NE7       30.37R WCI  29
SOCORRO          N/A     38  15  39 SW8       30.36R WCI  32

$$
NMZ524>526-539-540-060500-
SOUTHCENTRAL MOUNTAINS

CITY           SKY/WX    TMP DP  RH WIND       PRES   REMARKS
RUIDOSO        CLEAR     32  16  51 NW7       30.37R WCI  26

$$
NMZ527>531-060500-
NORTHEAST HIGHLANDS/NORTHEAST PLAINS

CITY           SKY/WX    TMP DP  RH WIND       PRES   REMARKS
LAS VEGAS      CLEAR     31  20  63 CALM      30.30R
RATON          CLEAR     27  23  85 NW5       30.29R WCI  22
CLAYTON        CLEAR     32  22  66 SW13      30.29S WCI  22

$$
NMZ532>537-060500-
EASTCENTRAL PLAINS

CITY           SKY/WX    TMP DP  RH WIND       PRES   REMARKS
TUCUMCARI      CLEAR     32  23  69 SW7       30.33S WCI  26
CANNON AFB     CLEAR     29  20  69 SW10      30.36S WCI  20
CLOVIS AIRPORT CLEAR     28  19  69 SW8       30.37R WCI  20

$$
NMZ028-029-538-060500-
SOUTHEAST PLAINS

CITY           SKY/WX    TMP DP  RH WIND       PRES   REMARKS
ROSWELL        CLEAR     29  24  82 S9        30.39R WCI  20
ARTESIA        CLEAR     30  27  86 SE10      30.41S WCI  21
CARLSBAD       CLEAR     30  24  78 S10       30.43R WCI  21
HOBBS          CLEAR     28  28 100 S7        30.44R WCI  21


$$


USA.gov is the U.S. government's official web portal to all federal, state and local government web resources and services.